Weather History for Monte Cimone, Italy

Change the Weather History Date:

Tuesday, December 18, 2012

  Actual Average Record
Temperature  
Mean Temperature 28 °F -  
Max Temperature 31 °F 29 °F 43 °F (2013)
Min Temperature 26 °F 21 °F 10 °F (2005)
Degree Days  
Heating Degree Days 36    
Moisture  
Dew Point 16 °F    
Average Humidity 60    
Maximum Humidity 69    
Minimum Humidity 44    
Precipitation  
Precipitation 0.00 in 0.07 in - ()
Sea Level Pressure  
Sea Level Pressure 29.78 in    
Wind  
Wind Speed 14 mph ()    
Max Wind Speed 21 mph    
Max Gust Speed -    
Visibility 12.6 miles    
Events      
Averages and records for this station are not official NWS values.
T = Trace of Precipitation, MM = Missing Value Source: Averaged Metar Reports

Daily Weather History Graph

Daily Weather History Graph

Search for Another Location

Airport:

Trip Planner

Search our weather history database for the weather conditions in past years. The results will help you decide how hot, cold, wet, or windy it might be!

Date:

Astronomy

Dec. 18, 2012 Rise Set
Actual Time 7:47 AM CET 4:40 PM CET
Civil Twilight 7:14 AM CET 5:13 PM CET
Nautical Twilight 6:37 AM CET 5:50 PM CET
Astronomical Twilight 6:02 AM CET 6:25 PM CET
Moon 11:08 AM CET (12/18) 11:00 PM CET (12/18)
Length of Visible Light 9h 58m
Length of Day
8h 52m
Waxing Crescent, 32% of the Moon is Illuminated
Dec 18
Waxing Crescent
Dec 20
First Quarter
Dec 28
Full
Jan 5
Last Quarter
Jan 11
New

Hourly Weather History & Observations

Time (CET) Temp. Windchill Dew Point Humidity Pressure Visibility Wind Dir Wind Speed Gust Speed Precip Events Conditions
1:55 AM 26.6 °F 13.4 °F 17.6 °F 69% 29.74 in - WNW 18.4 mph - N/A   Clear
2:55 AM 28.4 °F 16.2 °F 19.4 °F 69% 29.74 in - WNW 17.3 mph - N/A   Clear
3:55 AM 28.4 °F 17.0 °F 19.4 °F 69% 29.74 in - WNW 15.0 mph - N/A   Clear
4:55 AM 28.4 °F 17.5 °F 19.4 °F 69% 29.74 in - WNW 13.8 mph - N/A   Clear
5:55 AM 28.4 °F 18.5 °F 19.4 °F 69% 29.74 in - WNW 11.5 mph - N/A   Clear
6:55 AM 28.4 °F 18.5 °F 19.4 °F 69% 29.74 in - WNW 11.5 mph - N/A   Clear
7:00 AM 29 °F - 19 °F 54%  in 19 mi WNW 11.5 mph - -  
7:55 AM 28.4 °F 18.5 °F 17.6 °F 64% 29.74 in 6.2 mi WNW 11.5 mph - N/A   Partly Cloudy
8:55 AM 30.2 °F 21.9 °F 17.6 °F 60% 29.74 in - WNW 9.2 mph - N/A   Clear
9:55 AM 30.2 °F 19.8 °F 19.4 °F 64% 29.77 in - NW 13.8 mph - N/A   Clear
10:55 AM 30.2 °F 18.1 °F 17.6 °F 60% 29.77 in - NW 18.4 mph - N/A   Clear
11:55 AM 28.4 °F 15.8 °F 17.6 °F 64% 29.77 in - NW 18.4 mph - N/A   Clear
12:55 PM 28.4 °F 15.8 °F 17.6 °F 64% 29.77 in - NW 18.4 mph - N/A   Clear
1:00 PM 29 °F - 17 °F 49%  in 31 mi NW 18.4 mph - -   Partly Cloudy
1:55 PM 30.2 °F 18.5 °F 15.8 °F 55% 29.77 in - NW 17.3 mph - N/A   Clear
2:55 PM 30.2 °F 17.4 °F 15.8 °F 55% 29.77 in - NW 20.7 mph - N/A   Clear
3:55 PM 30.2 °F 17.8 °F 14.0 °F 51% 29.80 in - NW 19.6 mph - N/A   Clear
4:55 PM 26.6 °F 13.8 °F 12.2 °F 55% 29.80 in - NNW 17.3 mph - N/A   Clear
5:55 PM 26.6 °F 13.4 °F 12.2 °F 55% 29.80 in - NNW 18.4 mph - N/A   Clear
6:55 PM 26.6 °F 14.3 °F 14.0 °F 59% 29.80 in - NNW 16.1 mph - N/A   Clear
7:00 PM 27 °F - 14 °F 44%  in 31 mi NNW 16.1 mph - -  
7:55 PM 26.6 °F 13.4 °F 12.2 °F 55% 29.80 in - NNW 18.4 mph - N/A   Clear
8:55 PM 26.6 °F 13.4 °F 14.0 °F 59% 29.83 in - NNW 18.4 mph - N/A   Clear
9:55 PM 26.6 °F 13.1 °F 14.0 °F 59% 29.83 in - NW 19.6 mph - N/A   Clear
10:55 PM 26.6 °F 12.7 °F 14.0 °F 59% 29.83 in - NNW 20.7 mph - N/A   Clear
11:55 PM 26.6 °F 12.7 °F 14.0 °F 59% 29.83 in - NNW 20.7 mph - N/A   Clear